Location: Newark
(35.6799°N, 139.7636°E)
Time: 10:55:55
(UTC+00:00)

Vanguard 3 - Pass Details

Date: 24 December 2019
Orbit: 507 x 3263 km, 33.4° (Epoch: 21 January)

Event Time Altitude Azimuth Distance (km) Brightness Sun altitude
Exits shadow 18:57:21 24° 102° (ESE) 1,283 8.7 -33.8°
Drops below altitude 10° 18:59:32 10° 91° (E) 2,149 10.1 -33.3°
Sets 19:02:29 0° 86° (E) 3,371 11.4 -32.8°
